Location: Elkol
(41.7238°N, 110.6124°W)
Time: 23:14:04
(UTC+00:00)

BlueWalker 3 - Pass Details

Date: 13 December 2022
Orbit: 499 x 517 km, 53.2° (Epoch: 05 February)

Event Time Altitude Azimuth Distance (km) Brightness Sun altitude
Rises 01:48:59 0° 296° (WNW) 2,620 6.4 -21.0°
Reaches altitude 10° 01:51:33 10° 281° (W) 1,726 5.6 -21.5°
Maximum altitude 01:54:33 21° 230° (SW) 1,164 4.4 -22.0°
Drops below altitude 10° 01:57:32 10° 180° (S) 1,707 4.7 -22.6°
Enters shadow 01:59:24 - 167° (SSE) 2,339 5.3 -22.9°
